Change the Weather History Date:

Wednesday, August 21, 2013

  Actual Average Record
Temperature  
Mean Temperature 50 °F -  
Max Temperature 61 °F 60 °F 75 °F (2004)
Min Temperature 39 °F 43 °F 37 °F (2008)
Degree Days  
Heating Degree Days 15    
Moisture  
Dew Point 42 °F    
Average Humidity 75    
Maximum Humidity 96    
Minimum Humidity 40    
Precipitation  
Precipitation 0.00 in - - ()
Sea Level Pressure  
Sea Level Pressure 29.81 in    
Wind  
Wind Speed 3 mph (ESE)    
Max Wind Speed 9 mph    
Max Gust Speed -    
Visibility 10 miles    
Events      
Averages and records for this station are not official NWS values.
T = Trace of Precipitation, MM = Missing Value Source: NWS Daily Summary

Daily Weather History Graph

Daily Weather History Graph

Search for Another Location

Airport or City:

Trip Planner

Search our weather history database for the weather conditions in past years. The results will help you decide how hot, cold, wet, or windy it might be!

Date:

Astronomy

Aug. 21, 2013 Rise Set
Actual Time 5:54 AM AKDT 9:35 PM AKDT
Civil Twilight 4:55 AM AKDT 10:33 PM AKDT
Nautical Twilight 3:18 AM AKDT 12:06 AM AKDT
Astronomical Twilight Sun does not rise Sun does not rise
Moon 8:57 PM AKDT (8/21) 7:24 AM AKDT (8/21)
Length of Visible Light 17h 38m
Length of Day
15h 40m
Full, 99% of the Moon is Illuminated
Aug 21
Full
Aug 28
Last Quarter
Sep 5
New
Sep 12
First Quarter
Sep 19
Full

Hourly Weather History & Observations

Time (AKDT) Temp. Windchill Dew Point Humidity Pressure Visibility Wind Dir Wind Speed Gust Speed Precip Events Conditions
12:53 AM 46.0 °F 43.9 °F 44.1 °F 93% 29.84 in 10.0 mi SSW 4.6 mph - 0.00 in   Mostly Cloudy
1:53 AM 46.0 °F 42.5 °F 43.0 °F 89% 29.84 in 10.0 mi SSW 6.9 mph - N/A   Overcast
2:53 AM 46.0 °F - 42.1 °F 86% 29.85 in 10.0 mi Calm Calm - N/A   Mostly Cloudy
3:53 AM 44.1 °F - 41.0 °F 89% 29.86 in 10.0 mi Calm Calm - N/A   Partly Cloudy
4:53 AM 42.1 °F - 39.9 °F 92% 29.87 in 10.0 mi Calm Calm - N/A   Clear
5:53 AM 43.0 °F - 39.9 °F 89% 29.87 in 10.0 mi Calm Calm - N/A   Partly Cloudy
6:08 AM 41.0 °F - 39.2 °F 93% 29.83 in 10.0 mi Calm Calm - N/A   Scattered Clouds
6:53 AM 41.0 °F 37.1 °F 39.9 °F 96% 29.87 in 10.0 mi East 5.8 mph - N/A   Scattered Clouds
7:36 AM 41.0 °F - 39.2 °F 93% 29.84 in 10.0 mi Calm Calm - N/A   Scattered Clouds
7:53 AM 41.0 °F 38.0 °F 39.9 °F 96% 29.87 in 10.0 mi East 4.6 mph - N/A   Scattered Clouds
8:00 AM 41.0 °F 38.0 °F 39.2 °F 93% 29.83 in 1.2 mi ESE 4.6 mph - N/A   Overcast
8:04 AM 42.8 °F 41.1 °F 41.0 °F 93% 29.83 in 10.0 mi ESE 3.5 mph - N/A   Scattered Clouds
8:53 AM 45.0 °F - 43.0 °F 93% 29.86 in 10.0 mi Calm Calm - N/A   Scattered Clouds
9:53 AM 48.9 °F - 44.1 °F 83% 29.86 in 10.0 mi East 4.6 mph - N/A   Scattered Clouds
10:53 AM 50.0 °F - 45.0 °F 83% 29.84 in 10.0 mi East 3.5 mph - N/A   Scattered Clouds
11:53 AM 54.0 °F - 45.0 °F 72% 29.83 in 10.0 mi East 6.9 mph - N/A   Scattered Clouds
12:53 PM 55.9 °F - 43.0 °F 62% 29.82 in 10.0 mi ESE 3.5 mph - N/A   Scattered Clouds
1:53 PM 57.0 °F - 43.0 °F 59% 29.80 in 10.0 mi East 8.1 mph - N/A   Scattered Clouds
2:53 PM 57.9 °F - 42.1 °F 56% 29.78 in 10.0 mi ENE 5.8 mph - N/A   Mostly Cloudy
3:53 PM 59.0 °F - 41.0 °F 51% 29.77 in 10.0 mi Calm Calm - N/A   Mostly Cloudy
4:53 PM 59.0 °F - 41.0 °F 51% 29.76 in 10.0 mi Calm Calm - N/A   Mostly Cloudy
5:53 PM 59.0 °F - 41.0 °F 51% 29.75 in 10.0 mi ENE 4.6 mph - N/A   Mostly Cloudy
6:53 PM 57.9 °F - 41.0 °F 53% 29.75 in 10.0 mi ESE 4.6 mph - N/A   Overcast
7:53 PM 55.9 °F - 43.0 °F 62% 29.76 in 10.0 mi NNW 4.6 mph - N/A   Overcast
8:53 PM 55.0 °F - 43.0 °F 64% 29.75 in 10.0 mi Calm Calm - N/A   Overcast
9:53 PM 55.0 °F - 42.1 °F 62% 29.75 in 10.0 mi South 4.6 mph - N/A   Overcast
10:53 PM 53.1 °F - 39.9 °F 61% 29.75 in 10.0 mi SSW 9.2 mph - N/A   Overcast
11:53 PM 52.0 °F - 41.0 °F 66% 29.75 in 10.0 mi SW 5.8 mph - N/A   Overcast